Wind_Speed
18 18 18 18 21 15 11 10 8 7 8 7 6 6 7 7 7 7 6 6 7 7 7 6 6 5 5 5 4 4 4 5 6 6 6 7 7 8 8 7 7 8 8 8 9 9 9 9 9
17 16 18 20 18 11 10 8 8 8 8 7 7 7 7 7 7 7 6 6 6 6 6 6 5 5 4 4 4 3 4 4 5 6 6 6 6 7 7 7 7 7 7 7 8 8 8 8 8
15 15 19 18 11 8 9 9 9 9 8 8 7 7 6 7 7 6 6 5 5 5 5 5 5 5 4 3 3 3 3 4 4 5 5 5 6 6 6 6 6 7 7 7 7 8 8 7 7
14 17 18 13 7 8 8 8 8 8 8 7 7 6 6 6 6 6 5 5 4 4 4 4 4 4 3 2 2 2 2 3 3 4 4 5 5 6 6 6 6 6 6 6 7 7 7 6 6
14 18 14 9 7 8 8 8 8 8 8 7 7 6 6 6 6 6 5 5 4 4 3 3 3 3 2 1 1 1 1 1 2 3 3 4 4 5 5 5 6 6 6 6 6 6 6 5 5
15 17 10 7 6 8 8 7 8 7 8 8 8 7 7 6 6 6 6 5 4 3 2 2 2 2 1 1 1 1 1 1 1 2 2 3 4 4 5 5 5 6 6 5 5 5 5 5 5
12 13 9 5 7 6 8 7 7 8 8 9 9 8 8 6 6 6 6 6 4 3 2 2 2 1 1 0 0 0 0 1 1 1 2 3 4 4 4 4 5 5 5 5 5 4 4 4 5
10 10 9 3 4 5 6 7 7 8 8 9 10 10 9 7 7 6 6 6 5 4 3 2 2 2 2 1 1 1 1 1 1 1 2 3 3 3 3 4 4 4 4 4 5 4 4 4 4
8 9 7 2 2 4 5 6 7 7 7 8 9 9 9 8 7 6 7 7 6 6 4 3 3 3 2 2 1 1 1 1 1 1 2 2 2 3 3 3 3 3 3 4 4 4 4 4 4
7 7 3 1 1 3 3 5 6 6 6 8 9 9 9 8 8 8 8 7 7 6 5 4 5 4 2 2 1 1 1 2 1 1 1 2 2 2 2 2 2 3 3 3 4 5 4 4 3
6 5 3 1 3 2 3 4 5 7 8 8 9 9 9 9 9 9 9 9 8 7 6 6 5 4 3 2 2 2 2 2 2 1 1 1 1 1 1 1 2 2 2 3 3 4 4 3 3
3 3 3 3 3 1 2 3 5 7 8 9 9 8 8 8 9 9 10 9 9 8 7 7 6 5 4 3 2 2 2 1 1 1 1 1 0 0 1 1 2 2 2 2 3 3 3 3 3
3 2 4 3 2 2 2 3 5 6 7 8 8 8 8 8 9 9 10 10 9 9 9 8 7 6 5 4 2 2 1 1 1 1 1 1 1 1 1 1 1 2 1 1 2 2 2 2 3
5 4 4 4 4 3 2 4 6 6 9 8 8 8 8 9 10 10 10 11 10 9 9 9 7 6 6 4 3 3 3 3 3 2 2 3 2 2 1 1 1 1 1 1 1 2 2 2 2
6 5 5 5 5 5 4 4 6 7 10 9 8 9 9 10 10 10 11 11 11 10 9 9 8 7 6 5 4 4 4 4 4 4 4 4 3 3 2 2 2 2 2 2 1 1 2 1 1
6 6 5 6 7 7 5 5 7 8 10 10 9 9 10 11 11 10 11 11 11 10 10 9 9 8 7 6 5 5 5 5 5 5 5 5 4 4 4 3 3 3 2 2 2 1 2 1 1
5 5 5 6 9 9 7 6 8 8 11 11 11 9 10 11 11 11 11 11 11 10 10 10 9 8 7 7 7 6 6 6 6 5 5 5 4 4 4 4 4 4 4 4 3 2 2 3 2
5 6 6 7 11 11 8 7 9 10 11 11 11 11 10 11 11 11 11 11 11 10 10 10 8 8 8 7 8 7 7 7 7 7 6 5 4 4 4 4 5 5 5 5 5 4 4 4 4
9 9 8 8 13 13 10 8 10 12 12 12 11 11 11 11 11 11 11 12 12 11 12 10 9 9 9 9 9 7 7 6 7 7 7 6 5 6 6 6 6 6 7 6 6 6 6 6 6
13 12 10 11 15 14 12 9 10 12 13 13 12 11 12 11 11 11 12 12 13 13 13 12 11 10 10 9 8 7 6 6 7 6 7 7 7 8 8 8 8 8 9 8 8 7 8 8 8
15 13 13 14 16 14 12 10 11 13 13 13 13 12 12 12 11 11 12 13 13 13 13 13 12 11 10 9 8 8 7 7 7 7 8 8 9 9 8 9 10 10 10 10 10 10 10 9 9
15 14 15 15 15 13 11 11 14 14 13 13 13 13 13 12 12 11 13 14 14 14 13 13 13 12 11 10 9 8 8 8 8 8 9 9 9 9 10 11 11 11 11 11 11 11 11 11 11
16 15 17 16 16 14 12 13 14 14 14 14 13 13 13 13 13 13 14 14 14 14 14 13 13 12 12 11 10 9 10 10 9 9 10 10 10 10 11 11 11 12 12 13 13 13 13 13 13
18 17 17 15 14 15 13 13 14 14 14 15 14 13 13 14 13 14 14 15 15 15 14 13 13 13 12 12 11 11 11 11 10 11 11 10 10 11 12 12 12 13 13 14 13 13 14 14 14
20 18 15 14 14 14 12 14 16 16 14 14 13 13 14 14 13 14 14 15 15 14 13 13 13 13 13 13 12 12 12 12 11 12 12 12 12 12 12 12 13 13 14 14 14 14 14 14 15
20 18 15 12 11 12 12 13 15 17 17 17 14 14 16 15 14 15 14 15 15 15 14 13 13 13 13 13 13 13 13 12 11 11 12 12 12 12 12 12 13 14 14 14 15 15 16 16 16
21 20 17 15 13 14 14 15 17 19 20 19 17 16 16 16 14 15 14 14 15 14 14 13 13 13 13 13 12 13 12 12 12 11 12 12 12 12 13 13 14 14 14 15 15 16 16 16 16
23 20 20 21 18 16 15 14 17 20 19 18 17 16 16 16 15 14 14 14 14 14 13 13 14 12 12 11 11 11 10 11 11 11 11 11 12 13 13 14 15 15 14 15 15 15 16 16 17
24 23 23 22 20 17 16 16 19 19 20 18 17 16 16 14 14 14 15 13 13 13 13 13 12 11 11 10 10 9 10 10 11 11 11 12 12 13 14 15 15 15 15 15 15 15 16 17 17
23 23 23 24 23 21 18 19 20 16 16 17 17 17 15 15 15 14 15 12 13 14 14 13 11 11 11 10 10 10 11 11 11 12 12 13 13 14 14 14 14 14 15 15 15 16 16 17 17
Wind_Direction
80 78 75 69 61 59 57 48 43 50 56 58 58 55 56 56 58 59 63 72 78 78 74 74 74 75 85 94 98 101 108 108 106 104 102 100 96 93 93 91 87 86 86 86 86 84 83 81 81
84 79 71 65 61 39 41 46 42 47 50 53 54 54 55 55 59 61 62 67 75 73 71 68 68 70 79 89 95 107 110 107 107 106 106 105 101 97 95 92 89 86 85 87 85 83 81 80 79
89 79 71 62 48 20 27 34 35 42 44 41 45 47 51 52 57 58 61 67 73 74 73 67 65 65 67 76 87 104 112 111 110 110 109 105 102 100 97 91 90 88 86 84 83 81 79 76 74
92 81 73 65 34 17 21 25 26 36 38 33 37 39 40 45 48 48 54 61 68 74 75 66 60 60 60 69 80 98 106 111 113 111 106 105 105 104 101 97 94 91 87 83 81 80 77 73 70
89 80 71 61 30 11 16 16 22 29 29 30 31 28 27 34 42 44 46 55 62 70 74 64 53 48 47 45 58 67 78 112 117 111 105 105 108 108 104 100 95 90 86 82 79 78 75 72 66
87 79 67 45 24 6 6 13 15 23 23 21 23 21 21 26 36 39 37 40 47 49 55 56 43 31 32 23 28 44 72 101 111 109 99 105 109 106 105 101 96 91 84 78 75 73 71 67 62
90 85 80 32 8 2 359 6 8 15 21 18 22 24 21 22 28 31 33 31 28 24 31 40 30 8 356 326 320 11 121 107 100 93 93 105 106 104 102 99 94 91 84 76 69 66 69 65 61
95 100 95 52 354 348 357 1 4 11 15 15 15 18 19 20 21 25 31 29 23 16 15 21 354 340 333 298 258 257 237 191 115 97 105 107 108 105 95 91 90 88 80 71 64 62 66 65 65
98 91 90 95 345 325 348 354 9 5 12 12 11 13 16 18 17 19 24 22 16 17 14 8 353 342 326 291 255 252 237 221 182 134 122 116 118 112 92 82 79 82 79 70 65 63 67 68 69
98 85 96 126 329 308 338 353 358 346 9 13 8 10 15 16 16 16 14 13 11 9 7 0 359 356 334 287 240 234 236 228 221 197 142 125 131 118 89 71 68 69 69 71 70 72 70 70 64
115 108 112 196 250 291 340 351 343 341 351 6 8 7 13 13 11 10 8 5 8 5 2 358 351 349 338 314 243 228 225 233 235 217 175 104 126 122 100 78 60 56 60 71 75 82 71 66 58
148 154 184 192 243 284 333 336 326 338 349 353 357 2 4 9 6 5 5 1 2 3 359 357 346 339 334 316 275 247 224 250 244 241 270 352 16 97 104 79 47 41 50 70 78 76 67 64 68
197 210 230 237 263 276 295 302 310 326 333 340 348 353 356 358 360 0 0 359 356 356 355 349 343 334 332 325 306 292 287 304 296 289 289 303 334 311 350 6 352 13 26 39 51 51 52 59 65
210 220 248 254 264 272 293 304 312 317 323 333 341 349 352 351 353 355 357 356 354 351 346 341 342 336 330 317 304 293 290 293 293 303 304 306 309 313 313 323 336 356 7 349 15 25 36 44 56
210 221 241 264 274 276 284 297 306 309 318 327 333 343 347 347 346 349 352 353 352 355 352 342 339 338 329 317 305 295 292 295 300 306 310 306 298 300 305 308 310 328 332 334 333 358 14 14 28
221 234 240 251 270 280 276 282 291 303 309 317 325 336 340 343 343 344 347 349 349 353 351 346 341 334 328 322 315 301 288 286 297 301 306 306 292 290 295 286 292 306 305 308 312 316 323 321 314
243 260 255 249 270 276 275 278 284 300 305 313 317 325 329 335 339 340 341 345 346 347 345 342 342 334 329 323 318 310 298 286 286 290 296 301 291 291 290 280 291 304 292 286 289 286 298 297 281
219 263 258 239 267 272 269 271 283 297 301 307 311 316 320 328 333 334 337 340 341 338 335 336 336 335 330 323 315 310 304 289 280 277 281 287 287 288 291 289 289 297 296 289 287 279 279 285 286
207 228 240 240 256 265 265 268 279 289 296 300 308 310 314 323 329 330 333 335 336 331 328 327 327 327 325 322 312 304 303 294 279 279 278 283 281 280 283 291 292 294 294 284 281 282 284 287 285
216 217 231 244 257 261 263 263 269 280 293 300 305 308 310 318 324 327 330 332 332 329 326 324 320 315 313 317 317 309 302 293 285 282 277 281 280 278 278 280 285 288 291 287 278 278 281 280 280
225 220 225 239 254 262 266 267 265 267 285 297 305 308 309 311 316 322 325 326 327 325 324 321 316 310 307 307 310 308 297 290 287 281 279 278 277 277 276 279 283 285 285 285 282 277 278 279 280
229 229 228 234 248 261 267 268 269 269 277 288 300 306 309 312 314 316 318 321 323 323 320 317 311 307 302 300 298 304 298 285 281 277 275 274 275 274 274 277 280 282 281 280 280 278 277 277 279
226 233 235 236 246 251 252 259 267 276 271 279 290 295 301 305 309 312 316 317 317 318 317 316 313 309 303 299 297 298 297 287 280 280 280 273 269 271 275 275 277 278 280 280 279 279 280 281 280
228 234 241 241 246 252 251 256 262 262 268 273 278 286 295 300 305 308 314 315 314 314 314 313 312 309 308 303 298 295 295 293 286 283 282 279 277 275 275 275 278 280 283 283 279 279 282 283 281
230 232 237 242 248 257 255 252 258 259 261 270 275 282 290 295 298 302 308 311 310 311 312 310 310 306 304 303 301 297 294 296 292 285 283 284 282 281 279 276 277 282 283 282 277 278 282 284 283
231 228 226 232 252 264 258 250 259 267 263 267 271 278 285 289 294 298 303 308 309 309 309 307 307 305 300 298 299 298 294 293 293 289 287 288 288 285 284 282 283 285 284 279 277 277 279 282 284
229 225 222 233 239 256 261 244 254 266 269 271 273 271 279 285 291 295 299 304 307 307 308 308 305 304 302 300 297 296 294 294 294 293 291 288 288 286 287 286 285 286 286 281 280 280 280 281 284
226 225 219 225 237 246 255 259 261 263 273 278 276 275 276 281 287 292 296 302 306 306 306 307 305 302 302 304 302 299 296 296 298 299 299 296 293 291 287 286 285 286 287 284 282 282 280 281 283
225 224 223 226 230 239 249 253 254 254 267 274 275 276 277 280 284 289 291 299 306 305 303 303 303 301 302 303 304 302 302 304 303 303 300 298 299 297 293 289 285 286 287 285 286 285 282 283 284
229 228 226 228 229 230 241 259 255 251 262 271 272 274 277 282 284 288 293 296 303 302 300 301 298 298 300 302 300 301 303 305 305 305 304 303 301 300 297 293 289 287 288 286 287 286 284 286 289
Height
5908 5907 5907 5906 5905 5907 5907 5907 5906 5904 5904 5903 5902 5902 5901 5900 5901 5902 5899 5898 5898 5898 5898 5898 5898 5898 5898 5898 5898 5898 5898 5897 5897 5897 5896 5896 5896 5896 5896 5896 5896 5896 5896 5896 5896 5896 5896 5896 5896
5910 5911 5909 5908 5909 5910 5910 5909 5908 5907 5906 5905 5904 5903 5903 5902 5902 5901 5900 5900 5900 5899 5899 5899 5899 5899 5899 5899 5899 5899 5899 5899 5898 5898 5898 5898 5898 5897 5897 5897 5897 5897 5898 5898 5898 5898 5897 5897 5898
5912 5912 5911 5911 5913 5913 5913 5911 5910 5909 5908 5907 5906 5906 5905 5904 5903 5902 5901 5901 5901 5901 5901 5901 5901 5901 5901 5901 5901 5901 5900 5900 5900 5900 5899 5899 5899 5899 5899 5899 5899 5899 5899 5899 5899 5899 5899 5899 5899
5914 5913 5913 5916 5917 5916 5914 5913 5912 5911 5910 5909 5908 5907 5906 5905 5904 5904 5903 5902 5902 5902 5902 5902 5902 5902 5902 5902 5902 5902 5902 5901 5901 5901 5901 5900 5900 5900 5900 5900 5900 5900 5900 5900 5900 5900 5900 5900 5900
5914 5914 5917 5918 5918 5917 5916 5915 5913 5913 5911 5910 5910 5909 5908 5907 5906 5905 5904 5903 5903 5903 5903 5903 5903 5903 5903 5903 5903 5903 5903 5903 5902 5902 5902 5902 5902 5902 5902 5902 5902 5902 5902 5902 5902 5902 5901 5901 5901
5916 5916 5920 5921 5920 5920 5918 5916 5915 5915 5913 5912 5911 5910 5909 5909 5907 5906 5905 5905 5904 5904 5904 5904 5904 5904 5904 5904 5904 5904 5904 5904 5904 5903 5903 5903 5903 5903 5903 5903 5903 5903 5903 5903 5903 5903 5903 5902 5902
5918 5918 5922 5923 5922 5922 5920 5918 5917 5916 5915 5914 5913 5912 5911 5910 5909 5907 5906 5906 5905 5905 5904 5904 5904 5904 5904 5904 5905 5905 5905 5905 5905 5904 5904 5904 5904 5904 5904 5904 5904 5904 5904 5904 5904 5904 5904 5903 5903
5919 5921 5922 5925 5924 5923 5922 5920 5919 5917 5916 5915 5914 5913 5912 5911 5910 5908 5908 5907 5906 5905 5905 5905 5905 5905 5905 5905 5905 5905 5905 5905 5905 5905 5905 5905 5905 5905 5905 5905 5905 5905 5905 5905 5905 5905 5905 5904 5904
5922 5924 5924 5926 5925 5924 5923 5921 5920 5918 5917 5916 5915 5914 5913 5912 5911 5910 5909 5908 5907 5906 5906 5906 5905 5905 5905 5905 5905 5906 5906 5906 5906 5906 5906 5906 5906 5906 5906 5906 5906 5906 5906 5906 5906 5906 5906 5905 5905
5923 5924 5926 5926 5926 5925 5923 5922 5921 5919 5917 5917 5916 5915 5914 5913 5912 5911 5910 5909 5908 5907 5907 5906 5906 5906 5906 5906 5906 5906 5906 5906 5907 5907 5907 5907 5907 5907 5907 5907 5907 5907 5907 5907 5907 5907 5907 5907 5906
5924 5925 5926 5927 5927 5926 5925 5923 5922 5921 5918 5918 5917 5916 5915 5914 5913 5912 5911 5910 5909 5908 5908 5907 5907 5906 5906 5906 5906 5906 5906 5907 5907 5908 5908 5908 5908 5908 5908 5908 5908 5908 5908 5908 5908 5908 5908 5908 5907
5925 5926 5926 5927 5927 5926 5925 5925 5923 5922 5920 5919 5918 5917 5916 5915 5914 5913 5912 5911 5910 5909 5908 5908 5907 5907 5907 5907 5907 5906 5906 5907 5908 5908 5909 5909 5909 5909 5909 5909 5909 5909 5909 5909 5909 5909 5909 5909 5908
5925 5926 5927 5927 5927 5926 5925 5925 5924 5923 5921 5920 5919 5918 5917 5916 5915 5914 5913 5912 5910 5910 5909 5908 5908 5907 5907 5907 5907 5907 5908 5908 5908 5909 5909 5909 5909 5909 5909 5910 5910 5910 5910 5910 5910 5910 5910 5910 5909
5925 5925 5926 5927 5927 5926 5926 5925 5925 5924 5922 5921 5920 5919 5918 5917 5915 5914 5913 5912 5911 5910 5909 5908 5908 5907 5907 5907 5907 5908 5908 5908 5909 5909 5909 5909 5909 5909 5910 5910 5910 5910 5910 5910 5910 5910 5910 5910 5910
5923 5925 5926 5926 5926 5926 5926 5926 5925 5924 5922 5921 5920 5919 5918 5917 5916 5915 5913 5912 5911 5910 5909 5908 5907 5907 5907 5907 5907 5907 5908 5908 5909 5909 5909 5909 5909 5909 5910 5910 5910 5910 5911 5911 5911 5911 5911 5910 5910
5922 5923 5925 5926 5926 5926 5927 5926 5925 5924 5923 5921 5920 5919 5918 5917 5916 5915 5914 5912 5911 5910 5909 5908 5907 5907 5907 5907 5907 5907 5908 5908 5908 5909 5909 5909 5909 5909 5910 5910 5910 5910 5911 5911 5911 5911 5911 5911 5911
5921 5923 5925 5926 5926 5926 5926 5925 5924 5924 5923 5921 5920 5919 5919 5918 5916 5915 5914 5912 5911 5910 5909 5908 5907 5907 5907 5907 5907 5907 5907 5907 5908 5908 5909 5909 5909 5909 5909 5910 5910 5910 5910 5910 5911 5911 5911 5910 5910
5922 5925 5926 5926 5926 5925 5925 5925 5924 5923 5923 5921 5920 5919 5918 5917 5916 5915 5914 5912 5911 5910 5909 5908 5907 5907 5907 5907 5907 5906 5906 5906 5907 5908 5908 5908 5908 5909 5909 5909 5910 5910 5910 5910 5910 5910 5910 5910 5910
5921 5924 5925 5926 5925 5924 5924 5925 5924 5923 5922 5920 5919 5918 5917 5916 5916 5914 5913 5912 5911 5910 5909 5908 5907 5907 5906 5906 5906 5905 5905 5905 5905 5907 5907 5907 5908 5908 5908 5909 5909 5909 5909 5909 5909 5909 5909 5909 5909
5918 5921 5924 5925 5923 5923 5922 5923 5923 5922 5921 5920 5919 5918 5917 5915 5915 5914 5913 5911 5910 5909 5908 5907 5907 5906 5906 5905 5904 5904 5904 5903 5903 5905 5906 5906 5906 5907 5907 5908 5908 5908 5908 5907 5907 5908 5907 5907 5907
5915 5918 5921 5923 5921 5921 5921 5922 5922 5921 5920 5919 5918 5917 5916 5915 5914 5913 5912 5910 5909 5908 5907 5906 5905 5905 5904 5904 5903 5903 5903 5903 5903 5904 5905 5905 5905 5905 5906 5906 5906 5906 5906 5906 5906 5906 5906 5906 5906
5912 5915 5917 5919 5919 5919 5921 5921 5920 5918 5918 5918 5917 5916 5914 5913 5912 5911 5910 5909 5908 5907 5906 5905 5904 5903 5903 5902 5902 5902 5902 5902 5902 5902 5903 5903 5903 5904 5904 5904 5904 5904 5904 5904 5904 5904 5904 5904 5904
5909 5912 5913 5915 5916 5916 5918 5919 5920 5917 5916 5916 5916 5915 5914 5912 5911 5910 5909 5908 5907 5905 5904 5903 5902 5901 5901 5901 5900 5900 5900 5900 5900 5901 5901 5901 5901 5901 5901 5901 5901 5901 5901 5901 5901 5901 5901 5901 5901
5905 5908 5909 5911 5913 5914 5915 5917 5917 5915 5914 5913 5913 5913 5912 5911 5910 5909 5908 5907 5905 5904 5902 5901 5900 5900 5899 5899 5898 5898 5898 5898 5898 5898 5898 5898 5898 5899 5899 5898 5898 5898 5898 5898 5898 5898 5898 5898 5897
5902 5905 5907 5909 5910 5912 5913 5914 5914 5912 5911 5910 5910 5910 5910 5909 5908 5907 5906 5905 5903 5902 5900 5899 5899 5898 5897 5897 5896 5896 5896 5896 5895 5895 5895 5895 5895 5896 5896 5895 5895 5895 5895 5894 5895 5895 5895 5894 5894
5898 5902 5905 5908 5910 5910 5910 5911 5912 5910 5908 5908 5908 5908 5908 5907 5906 5905 5904 5903 5901 5899 5898 5897 5896 5896 5895 5895 5894 5894 5893 5893 5893 5893 5893 5893 5892 5892 5892 5892 5892 5891 5891 5890 5891 5891 5891 5890 5890
5894 5897 5902 5905 5907 5908 5908 5908 5908 5907 5906 5906 5906 5905 5905 5904 5903 5903 5901 5901 5899 5898 5896 5895 5894 5894 5893 5893 5892 5892 5891 5891 5891 5890 5890 5890 5889 5889 5889 5889 5889 5888 5888 5887 5888 5888 5887 5887 5886
5890 5894 5898 5900 5903 5904 5906 5905 5905 5903 5903 5903 5902 5901 5902 5901 5901 5900 5899 5898 5897 5896 5895 5893 5892 5891 5891 5891 5890 5889 5889 5888 5888 5887 5887 5887 5887 5886 5886 5886 5886 5885 5885 5884 5884 5884 5883 5883 5882
5886 5889 5892 5896 5899 5902 5902 5904 5900 5898 5899 5899 5899 5899 5899 5899 5898 5898 5896 5895 5894 5893 5893 5892 5890 5890 5889 5889 5888 5888 5887 5887 5886 5886 5885 5885 5884 5884 5883 5882 5882 5881 5881 5880 5880 5880 5879 5879 5878
5881 5884 5888 5891 5894 5896 5898 5900 5893 5892 5895 5896 5896 5896 5896 5895 5895 5895 5893 5892 5892 5892 5891 5889 5888 5888 5887 5887 5887 5886 5886 5885 5884 5883 5883 5882 5881 5880 5879 5878 5878 5877 5877 5877 5876 5876 5876 5875 5874